TimeEET,TemperatureF,Dew PointF,Humidity,Sea Level PressureIn,VisibilityMPH,Wind Direction,Wind SpeedMPH,Gust SpeedMPH,PrecipitationIn,Events,Conditions,WindDirDegrees,DateUTC
12:20 AM,57.2,44.6,63,30.01,-9999.0,ESE,3.5,-,N/A,,Clear,120,2012-11-22 22:20:00
12:50 AM,53.6,44.6,72,30.01,-9999.0,ESE,5.8,-,N/A,,Clear,120,2012-11-22 22:50:00
1:20 AM,55.4,44.6,67,30.01,-9999.0,East,6.9,-,N/A,,Clear,100,2012-11-22 23:20:00
1:50 AM,55.4,44.6,67,30.01,-9999.0,East,8.1,-,N/A,,Clear,100,2012-11-22 23:50:00
2:20 AM,55.4,42.8,63,30.01,-9999.0,East,6.9,-,N/A,,Clear,100,2012-11-23 00:20:00
2:50 AM,53.6,44.6,72,30.01,-9999.0,East,4.6,-,N/A,,Clear,90,2012-11-23 00:50:00
3:20 AM,55.4,42.8,63,30.01,-9999.0,East,6.9,-,N/A,,Clear,90,2012-11-23 01:20:00
3:50 AM,51.8,42.8,71,30.01,-9999.0,East,5.8,-,N/A,,Clear,100,2012-11-23 01:50:00
4:20 AM,51.8,42.8,71,30.01,-9999.0,ESE,6.9,-,N/A,,Clear,120,2012-11-23 02:20:00
4:50 AM,51.8,42.8,71,30.01,-9999.0,ESE,5.8,-,N/A,,Clear,110,2012-11-23 02:50:00
5:20 AM,50.0,41.0,71,30.04,-9999.0,ESE,5.8,-,N/A,,Clear,110,2012-11-23 03:20:00
5:50 AM,51.8,41.0,67,30.04,-9999.0,ESE,5.8,-,N/A,,Clear,110,2012-11-23 03:50:00
6:20 AM,51.8,41.0,67,30.04,-9999.0,East,6.9,-,N/A,,Clear,100,2012-11-23 04:20:00
6:50 AM,51.8,39.2,62,30.04,-9999.0,East,6.9,-,N/A,,Clear,80,2012-11-23 04:50:00
7:20 AM,55.4,39.2,54,30.04,-9999.0,ENE,8.1,-,N/A,,Clear,70,2012-11-23 05:20:00
7:50 AM,55.4,41.0,58,30.04,-9999.0,NE,6.9,-,N/A,,Clear,50,2012-11-23 05:50:00
8:20 AM,57.2,42.8,59,30.04,-9999.0,ENE,5.8,-,N/A,,Clear,70,2012-11-23 06:20:00
8:50 AM,60.8,42.8,52,30.04,-9999.0,NE,8.1,-,N/A,,Clear,40,2012-11-23 06:50:00
9:20 AM,60.8,42.8,52,30.06,-9999.0,NE,9.2,-,N/A,,Clear,50,2012-11-23 07:20:00
9:50 AM,62.6,41.0,45,30.06,-9999.0,NNE,8.1,-,N/A,,Clear,20,2012-11-23 07:50:00
10:20 AM,64.4,41.0,42,30.06,-9999.0,North,8.1,-,N/A,,Clear,10,2012-11-23 08:20:00
10:50 AM,64.4,44.6,49,30.04,-9999.0,NE,9.2,-,N/A,,Clear,50,2012-11-23 08:50:00
11:20 AM,66.2,39.2,37,30.04,-9999.0,NE,11.5,-,N/A,,Clear,50,2012-11-23 09:20:00
11:50 AM,66.2,41.0,40,30.04,-9999.0,NE,11.5,-,N/A,,Clear,40,2012-11-23 09:50:00
12:20 PM,66.2,41.0,40,30.04,-9999.0,NE,12.7,-,N/A,,Clear,50,2012-11-23 10:20:00
12:50 PM,66.2,42.8,43,30.01,-9999.0,NE,12.7,-,N/A,,Clear,50,2012-11-23 10:50:00
1:20 PM,66.2,41.0,40,30.01,-9999.0,NE,12.7,-,N/A,,Clear,50,2012-11-23 11:20:00
1:50 PM,66.2,39.2,37,30.01,-9999.0,NE,11.5,-,N/A,,Clear,50,2012-11-23 11:50:00
2:20 PM,68.0,39.2,35,30.01,-9999.0,ENE,10.4,-,N/A,,Clear,60,2012-11-23 12:20:00
2:50 PM,66.2,37.4,35,30.01,-9999.0,NE,11.5,-,N/A,,Clear,50,2012-11-23 12:50:00
3:20 PM,66.2,41.0,40,30.01,-9999.0,NE,10.4,-,N/A,,Clear,50,2012-11-23 13:20:00
3:50 PM,66.2,41.0,40,30.01,-9999.0,NNE,6.9,-,N/A,,Clear,20,2012-11-23 13:50:00
4:20 PM,64.4,44.6,49,30.01,-9999.0,ENE,3.5,-,N/A,,Clear,70,2012-11-23 14:20:00
4:50 PM,62.6,42.8,48,30.01,-9999.0,NNE,4.6,-,N/A,,Clear,30,2012-11-23 14:50:00
5:20 PM,60.8,42.8,52,30.04,-9999.0,NE,4.6,-,N/A,,Clear,50,2012-11-23 15:20:00
5:50 PM,57.2,42.8,59,30.04,-9999.0,Variable,2.3,-,N/A,,Clear,0,2012-11-23 15:50:00
6:20 PM,55.4,44.6,67,30.04,-9999.0,Variable,2.3,-,N/A,,Clear,0,2012-11-23 16:20:00
6:50 PM,53.6,44.6,72,30.04,-9999.0,ESE,5.8,-,N/A,,Clear,110,2012-11-23 16:50:00
7:20 PM,51.8,44.6,76,30.04,-9999.0,SSE,5.8,-,N/A,,Clear,150,2012-11-23 17:20:00
7:50 PM,53.6,44.6,72,30.04,-9999.0,SSE,3.5,-,N/A,,Clear,150,2012-11-23 17:50:00
8:20 PM,50.0,42.8,76,30.04,-9999.0,West,3.5,-,N/A,,Clear,280,2012-11-23 18:20:00
8:50 PM,53.6,41.0,62,30.04,-9999.0,Variable,2.3,-,N/A,,Clear,0,2012-11-23 18:50:00
9:20 PM,50.0,42.8,76,30.04,-9999.0,ESE,5.8,-,N/A,,Clear,120,2012-11-23 19:20:00
9:50 PM,50.0,42.8,76,30.04,-9999.0,SSE,5.8,-,N/A,,Clear,160,2012-11-23 19:50:00
10:20 PM,48.2,42.8,82,30.06,-9999.0,Variable,2.3,-,N/A,,Clear,0,2012-11-23 20:20:00
10:50 PM,48.2,42.8,82,30.06,-9999.0,East,4.6,-,N/A,,Clear,90,2012-11-23 20:50:00
11:20 PM,48.2,42.8,82,30.06,-9999.0,SSE,4.6,-,N/A,,Clear,150,2012-11-23 21:20:00
11:50 PM,48.2,42.8,82,30.06,-9999.0,Variable,1.2,-,N/A,,Clear,0,2012-11-23 21:50:00